FFT3219 KDEN-KSLC

Flight info

Callsign FFT3219
Flight time N/A
Altitude 36000
Route ZIMMR4 CHNGY EKR PITTT2
Aircraft A20N/M-SDE2E3FGHIRWXY/LB1

Departure

Time 2026-05-06 01:18
Airport Denver International Airport (KDEN)

Arrival

Time N/A
Airport Salt Lake City International Airport (KSLC)
Time Latitude Longitude Altitude Speed Heading
2026-05-06 00:41 39.85446 -104.67072 5362 ft 0 kts 190°
2026-05-06 01:05 39.85447 -104.67072 5356 ft 1 kts 190°
2026-05-06 01:05 39.85469 -104.67067 5365 ft 2 kts 190°
2026-05-06 01:05 39.85489 -104.67063 5365 ft 2 kts 181°
2026-05-06 01:05 39.85508 -104.67063 5366 ft 0 kts 181°
2026-05-06 01:10 39.85507 -104.67063 5366 ft 1 kts 181°
2026-05-06 01:10 39.85501 -104.67053 5364 ft 7 kts 129°
2026-05-06 01:11 39.85520 -104.66995 5363 ft 6 kts 27°
2026-05-06 01:11 39.85539 -104.67002 5362 ft 5 kts 332°
2026-05-06 01:11 39.85583 -104.67055 5365 ft 11 kts 300°
2026-05-06 01:11 39.85588 -104.67168 5364 ft 14 kts 269°
2026-05-06 01:12 39.85588 -104.67312 5366 ft 17 kts 271°
2026-05-06 01:12 39.85591 -104.67480 5366 ft 20 kts 271°
2026-05-06 01:12 39.85592 -104.67645 5366 ft 17 kts 269°
2026-05-06 01:12 39.85594 -104.67789 5366 ft 15 kts 271°
2026-05-06 01:13 39.85596 -104.67921 5366 ft 14 kts 272°
2026-05-06 01:13 39.85596 -104.68046 5364 ft 14 kts 269°
2026-05-06 01:13 39.85597 -104.68167 5364 ft 13 kts 270°
2026-05-06 01:13 39.85598 -104.68285 5363 ft 13 kts 270°
2026-05-06 01:14 39.85463 -104.68398 5364 ft 19 kts 180°
2026-05-06 01:14 39.85325 -104.68400 5364 ft 20 kts 179°
2026-05-06 01:14 39.85210 -104.68407 5366 ft 9 kts 205°
2026-05-06 01:15 39.85202 -104.68484 5364 ft 15 kts 270°
2026-05-06 01:15 39.85203 -104.68625 5364 ft 16 kts 265°
2026-05-06 01:15 39.85206 -104.68756 5366 ft 14 kts 264°
2026-05-06 01:15 39.85201 -104.68875 5362 ft 13 kts 266°
2026-05-06 01:16 39.85196 -104.68986 5363 ft 12 kts 268°
2026-05-06 01:16 39.85195 -104.69098 5364 ft 13 kts 270°
2026-05-06 01:16 39.85197 -104.69238 5364 ft 21 kts 272°
2026-05-06 01:16 39.85202 -104.69463 5363 ft 27 kts 271°
2026-05-06 01:17 39.85202 -104.69626 5364 ft 9 kts 272°
2026-05-06 01:17 39.85260 -104.69667 5364 ft 17 kts 349°
2026-05-06 01:17 39.85580 -104.69653 5367 ft 77 kts 360°
2026-05-06 01:17 39.86309 -104.69644 5365 ft 130 kts
2026-05-06 01:18 39.87336 -104.69638 5395 ft 166 kts
2026-05-06 01:18 39.88502 -104.69631 5966 ft 171 kts
2026-05-06 01:18 39.89718 -104.69592 6688 ft 177 kts
2026-05-06 01:18 39.90933 -104.69950 6972 ft 188 kts 337°
2026-05-06 01:19 39.92047 -104.70939 7225 ft 204 kts 319°
2026-05-06 01:19 39.92906 -104.72518 7492 ft 230 kts 291°
2026-05-06 01:19 39.93066 -104.74707 7657 ft 260 kts 266°
2026-05-06 01:19 39.93088 -104.77204 7881 ft 289 kts 274°
2026-05-06 01:20 39.93192 -104.79811 8862 ft 287 kts 270°
2026-05-06 01:20 39.93182 -104.82436 9622 ft 293 kts 268°
2026-05-06 01:20 39.93166 -104.85051 9898 ft 292 kts 269°
2026-05-06 01:20 39.93181 -104.87831 9990 ft 324 kts 269°
2026-05-06 01:21 39.93214 -104.90929 9995 ft 357 kts 269°
2026-05-06 01:21 39.93279 -104.94131 10396 ft 354 kts 270°
2026-05-06 01:21 39.93353 -104.97275 11688 ft 337 kts 271°
2026-05-06 01:21 39.93428 -105.00227 13404 ft 314 kts 271°
2026-05-06 01:22 39.93498 -105.02974 14961 ft 292 kts 271°
2026-05-06 01:22 39.93560 -105.05566 16186 ft 284 kts 271°
2026-05-06 01:22 39.93618 -105.08150 17004 ft 287 kts 271°
2026-05-06 01:22 39.93675 -105.10750 17813 ft 289 kts 271°
2026-05-06 01:23 39.93734 -105.13370 18589 ft 290 kts 271°
2026-05-06 01:23 39.93791 -105.15976 19244 ft 293 kts 271°
2026-05-06 01:23 39.93850 -105.18645 19898 ft 296 kts 271°
2026-05-06 01:23 39.93909 -105.21342 20564 ft 299 kts 271°
2026-05-06 01:24 39.94066 -105.24059 21200 ft 303 kts 275°
2026-05-06 01:24 39.94288 -105.26786 21838 ft 306 kts 275°
2026-05-06 01:24 39.94508 -105.29555 22428 ft 309 kts 275°
2026-05-06 01:24 39.94729 -105.32370 22957 ft 315 kts 275°
2026-05-06 01:25 39.94952 -105.35223 23587 ft 318 kts 275°
2026-05-06 01:25 39.95174 -105.38062 24102 ft 320 kts 275°
2026-05-06 01:25 39.95400 -105.40963 24517 ft 327 kts 275°
2026-05-06 01:25 39.95637 -105.43981 24626 ft 342 kts 275°
2026-05-06 01:26 39.95884 -105.47131 24757 ft 356 kts 275°
2026-05-06 01:26 39.96140 -105.50405 24971 ft 366 kts 275°
2026-05-06 01:26 39.96399 -105.53713 25450 ft 369 kts 275°
2026-05-06 01:26 39.96658 -105.57047 25920 ft 371 kts 275°
2026-05-06 01:27 39.96916 -105.60406 26365 ft 374 kts 275°
2026-05-06 01:27 39.97173 -105.63786 26827 ft 376 kts 275°
2026-05-06 01:27 39.97426 -105.67152 27088 ft 382 kts 274°
2026-05-06 01:27 39.97631 -105.70655 27189 ft 393 kts 273°
2026-05-06 01:28 39.97800 -105.74241 27477 ft 399 kts 272°
2026-05-06 01:28 39.97965 -105.77858 27918 ft 401 kts 272°
2026-05-06 01:28 39.98136 -105.81494 28285 ft 403 kts 273°
2026-05-06 01:28 39.98312 -105.85151 28667 ft 405 kts 273°
2026-05-06 01:29 39.98492 -105.88829 28799 ft 408 kts 273°
2026-05-06 01:29 39.98673 -105.92522 29282 ft 409 kts 273°
2026-05-06 01:29 39.98854 -105.96187 29586 ft 412 kts 273°
2026-05-06 01:29 39.99037 -105.99925 29933 ft 414 kts 273°
2026-05-06 01:30 39.99219 -106.03699 30117 ft 420 kts 273°
2026-05-06 01:30 39.99401 -106.07504 30471 ft 420 kts 273°
2026-05-06 01:30 39.99582 -106.11297 30950 ft 418 kts 273°
2026-05-06 01:30 39.99760 -106.15063 31548 ft 413 kts 274°
2026-05-06 01:31 39.99934 -106.18778 32156 ft 408 kts 274°
2026-05-06 01:31 40.00105 -106.22443 32716 ft 404 kts 274°
2026-05-06 01:31 40.00273 -106.26076 33267 ft 399 kts 274°
2026-05-06 01:31 40.00439 -106.29677 33800 ft 395 kts 274°
2026-05-06 01:32 40.00602 -106.33238 34234 ft 392 kts 274°
2026-05-06 01:32 40.00761 -106.36729 34579 ft 390 kts 274°
2026-05-06 01:32 40.00920 -106.40261 34877 ft 390 kts 273°
2026-05-06 01:32 40.01078 -106.43775 35203 ft 388 kts 273°
2026-05-06 01:33 40.01234 -106.47277 35557 ft 386 kts 273°
2026-05-06 01:33 40.01388 -106.50768 35782 ft 385 kts 272°
2026-05-06 01:33 40.01690 -106.57696 35840 ft 382 kts 272°
2026-05-06 01:34 40.01938 -106.63456 35841 ft 384 kts 272°
2026-05-06 01:34 40.02234 -106.70399 35821 ft 383 kts 272°
2026-05-06 01:35 40.02574 -106.78512 35833 ft 387 kts 272°
2026-05-06 01:35 40.02816 -106.84369 35851 ft 386 kts 272°
2026-05-06 01:36 40.03099 -106.91311 35832 ft 386 kts 272°
2026-05-06 01:36 40.03379 -106.98297 35830 ft 385 kts 272°
2026-05-06 01:37 40.03655 -107.05277 35802 ft 385 kts 272°
2026-05-06 01:37 40.03930 -107.12332 35842 ft 392 kts 272°
2026-05-06 01:38 40.04202 -107.19439 35846 ft 392 kts 272°
2026-05-06 01:38 40.04469 -107.26508 35872 ft 393 kts 272°
2026-05-06 01:39 40.04733 -107.33666 35860 ft 396 kts 272°
2026-05-06 01:39 40.04996 -107.40843 35853 ft 396 kts 272°
2026-05-06 01:40 40.05253 -107.48023 35837 ft 397 kts 272°
2026-05-06 01:40 40.05506 -107.55223 35840 ft 397 kts 272°